Weather History for Cairo, IL

Change the Weather History Date:

Friday, October 19, 2012

  Actual Average Record
Temperature  
Mean Temperature 56 °F -  
Max Temperature 62 °F 65 °F 89 °F (2005)
Min Temperature 51 °F 46 °F 34 °F (1972)
Degree Days  
Heating Degree Days 8    
Growing Degree Days 6 (Base 50)    
Moisture  
Dew Point 40 °F    
Average Humidity 55    
Maximum Humidity 71    
Minimum Humidity 42    
Precipitation  
Precipitation 0.00 in - - ()
Sea Level Pressure  
Sea Level Pressure 29.71 in    
Wind  
Wind Speed 9 mph (WSW)    
Max Wind Speed 16 mph    
Max Gust Speed 24 mph    
Visibility 10 miles    
Events      
Averages and records for this station are not official NWS values.
T = Trace of Precipitation, MM = Missing Value Source: NWS Daily Summary

Daily Weather History Graph

Daily Weather History Graph

Search for Another Location

Airport:

Trip Planner

Search our weather history database for the weather conditions in past years. The results will help you decide how hot, cold, wet, or windy it might be!

Date:

Astronomy

Oct. 19, 2012 Rise Set
Actual Time 7:08 AM CDT 6:14 PM CDT
Civil Twilight 6:42 AM CDT 6:40 PM CDT
Nautical Twilight 6:12 AM CDT 7:10 PM CDT
Astronomical Twilight 5:42 AM CDT 7:40 PM CDT
Moon 11:46 AM CDT (10/19) 9:57 PM CDT (10/19)
Length of Visible Light 11h 57m
Length of Day
11h 05m
Waxing Crescent, 24% of the Moon is Illuminated
Oct 19
Waxing Crescent
Oct 21
First Quarter
Oct 29
Full
Nov 6
Last Quarter
Nov 13
New

Hourly Weather History & Observations

Time (CDT) Temp. Dew Point Humidity Pressure Visibility Wind Dir Wind Speed Gust Speed Precip Events Conditions
1:15 AM 59.0 °F 35.6 °F 42% 29.64 in 10.0 mi SW 11.5 mph 18.4 mph N/A   Overcast
1:35 AM 57.2 °F 35.6 °F 44% 29.64 in 10.0 mi SW 8.1 mph - N/A   Overcast
1:55 AM 57.2 °F 35.6 °F 44% 29.64 in 10.0 mi SW 9.2 mph 17.3 mph N/A   Scattered Clouds
2:15 AM 55.4 °F 35.6 °F 47% 29.64 in 10.0 mi SW 9.2 mph - N/A   Unknown
2:35 AM 55.4 °F 37.4 °F 51% 29.64 in 10.0 mi SW 8.1 mph - N/A   Unknown
2:55 AM 55.4 °F 37.4 °F 51% 29.63 in 10.0 mi SW 8.1 mph - N/A   Unknown
3:15 AM 55.4 °F 37.4 °F 51% 29.63 in 10.0 mi SW 6.9 mph - N/A   Unknown
3:55 AM 53.6 °F 37.4 °F 54% 29.63 in 10.0 mi SW 5.8 mph - N/A   Unknown
4:15 AM 53.6 °F 37.4 °F 54% 29.63 in 10.0 mi WSW 6.9 mph - N/A   Unknown
4:55 AM 53.6 °F 37.4 °F 54% 29.63 in 10.0 mi WSW 9.2 mph 16.1 mph N/A   Unknown
5:15 AM 55.4 °F 37.4 °F 51% 29.64 in 10.0 mi WSW 8.1 mph - N/A   Unknown
5:35 AM 55.4 °F 37.4 °F 51% 29.64 in 10.0 mi WSW 9.2 mph - N/A   Unknown
5:55 AM 55.4 °F 37.4 °F 51% 29.64 in 10.0 mi SW 9.2 mph - N/A   Unknown
6:15 AM 55.4 °F 37.4 °F 51% 29.64 in 10.0 mi SW 8.1 mph - N/A   Unknown
6:35 AM 53.6 °F 37.4 °F 54% 29.64 in 10.0 mi SSW 8.1 mph - N/A   Unknown
6:55 AM 53.6 °F 37.4 °F 54% 29.64 in 10.0 mi SW 10.4 mph - N/A   Unknown
7:15 AM 53.6 °F 39.2 °F 58% 29.64 in 10.0 mi WSW 8.1 mph - N/A   Unknown
7:35 AM 53.6 °F 39.2 °F 58% 29.65 in 10.0 mi WSW 8.1 mph - N/A   Drizzle
7:55 AM 51.8 °F 41.0 °F 67% 29.65 in 10.0 mi SW 9.2 mph - N/A   Drizzle
8:15 AM 51.8 °F 41.0 °F 67% 29.66 in 10.0 mi WSW 8.1 mph - N/A   Unknown
8:35 AM 53.6 °F 41.0 °F 62% 29.67 in 10.0 mi WSW 9.2 mph - N/A   Unknown
8:55 AM 53.6 °F 41.0 °F 62% 29.67 in 10.0 mi WSW 9.2 mph - N/A   Light Drizzle
9:15 AM 53.6 °F 41.0 °F 62% 29.67 in 10.0 mi WSW 5.8 mph - N/A   Unknown
9:35 AM 53.6 °F 41.0 °F 62% 29.68 in 10.0 mi WSW 6.9 mph - N/A   Unknown
9:55 AM 55.4 °F 41.0 °F 58% 29.68 in 10.0 mi SW 10.4 mph 16.1 mph N/A   Unknown
10:15 AM 55.4 °F 41.0 °F 58% 29.68 in 10.0 mi SW 9.2 mph - N/A   Unknown
10:35 AM 57.2 °F 41.0 °F 55% 29.67 in 10.0 mi WSW 12.7 mph 18.4 mph N/A   Unknown
10:55 AM 60.8 °F 41.0 °F 48% 29.68 in 10.0 mi West 11.5 mph 19.6 mph N/A   Unknown
11:15 AM 60.8 °F 41.0 °F 48% 29.69 in 10.0 mi West 12.7 mph 20.7 mph N/A   Unknown
11:35 AM 62.6 °F 39.2 °F 42% 29.69 in 10.0 mi West 15.0 mph 24.2 mph N/A   Unknown
11:55 AM 59.0 °F 39.2 °F 48% 29.70 in 10.0 mi West 16.1 mph 21.9 mph N/A   Unknown
12:15 PM 59.0 °F 39.2 °F 48% 29.70 in 10.0 mi West 12.7 mph 20.7 mph N/A   Unknown
12:35 PM 59.0 °F 41.0 °F 51% 29.70 in 10.0 mi WSW 13.8 mph 18.4 mph N/A   Unknown
12:55 PM 59.0 °F 39.2 °F 48% 29.70 in 10.0 mi West 12.7 mph 17.3 mph N/A   Unknown
1:15 PM 60.8 °F 39.2 °F 45% 29.70 in 10.0 mi West 13.8 mph 21.9 mph N/A   Unknown
1:35 PM 59.0 °F 39.2 °F 48% 29.71 in 10.0 mi WNW 12.7 mph 19.6 mph N/A   Unknown
2:15 PM 59.0 °F 41.0 °F 51% 29.71 in 10.0 mi West 11.5 mph 18.4 mph N/A   Unknown
2:35 PM 59.0 °F 41.0 °F 51% 29.72 in 10.0 mi West 8.1 mph - N/A   Unknown
2:55 PM 62.6 °F 41.0 °F 45% 29.72 in 10.0 mi WSW 11.5 mph 19.6 mph N/A   Unknown
3:15 PM 60.8 °F 39.2 °F 45% 29.72 in 10.0 mi West 16.1 mph - N/A   Unknown
4:15 PM 59.0 °F 41.0 °F 51% 29.75 in 10.0 mi West 9.2 mph - N/A   Unknown
4:35 PM 59.0 °F 41.0 °F 51% 29.76 in 10.0 mi West 10.4 mph - N/A   Unknown
4:55 PM 59.0 °F 41.0 °F 51% 29.76 in 10.0 mi West 5.8 mph - N/A   Unknown
5:15 PM 59.0 °F 41.0 °F 51% 29.77 in 10.0 mi West 6.9 mph - N/A   Unknown
5:55 PM 57.2 °F 41.0 °F 55% 29.78 in 10.0 mi West 5.8 mph - N/A   Unknown
6:15 PM 57.2 °F 41.0 °F 55% 29.79 in 10.0 mi West 8.1 mph - N/A   Unknown
6:55 PM 57.2 °F 42.8 °F 59% 29.80 in 10.0 mi West 5.8 mph - N/A   Unknown
7:15 PM 57.2 °F 42.8 °F 59% 29.80 in 10.0 mi West 6.9 mph - N/A   Unknown
7:35 PM 57.2 °F 42.8 °F 59% 29.81 in 10.0 mi West 5.8 mph - N/A   Unknown
7:55 PM 55.4 °F 42.8 °F 63% 29.81 in 10.0 mi West 4.6 mph - N/A   Unknown
8:15 PM 55.4 °F 42.8 °F 63% 29.82 in 10.0 mi West 4.6 mph - N/A   Unknown
8:35 PM 55.4 °F 42.8 °F 63% 29.82 in 10.0 mi WSW 3.5 mph - N/A   Unknown
9:15 PM 55.4 °F 42.8 °F 63% 29.84 in 10.0 mi West 6.9 mph - N/A   Unknown
9:35 PM 55.4 °F 42.8 °F 63% 29.84 in 10.0 mi West 5.8 mph - N/A   Unknown
9:55 PM 55.4 °F 42.8 °F 63% 29.84 in 10.0 mi West 4.6 mph - N/A   Unknown
10:15 PM 55.4 °F 42.8 °F 63% 29.84 in 10.0 mi West 6.9 mph - N/A   Unknown
10:55 PM 53.6 °F 42.8 °F 67% 29.84 in 10.0 mi West 4.6 mph - N/A   Unknown
11:15 PM 53.6 °F 42.8 °F 67% 29.84 in 10.0 mi WSW 3.5 mph - N/A   Unknown
11:35 PM 51.8 °F 42.8 °F 71% 29.83 in 10.0 mi WSW 3.5 mph - N/A   Unknown
11:55 PM 51.8 °F 42.8 °F 71% 29.83 in 10.0 mi Calm Calm - N/A   Unknown